sat.trackr.live / text

‹ back to catalog

AII-BRAVO

NORAD 48270 · 2021-034C

PAYLOAD ACTIVE UNKNOWN

§ Identity

Operator
Country
LTU
Launch date
2021-04-29
Launch site
FRGUI
Launch vehicle
Mass (kg)
RCS (m²)

External: N2YO · Heavens-Above · Gunter

§ Orbital elements

Epoch: 2026-05-25T03:00:12.038112Z

Period
95.79 min
Inclination
97.5623°
Eccentricity
0.0005503
Mean motion
15.03261345 rev/d
Perigee alt
553.0 km
Apogee alt
560.7 km
Semi-major
6,935.0 km
B*
2.2842e-4
RAAN
200.5644°
Arg perigee
1.5248°
Mean anomaly
358.5993°
Rev number
27,615

§ Raw data

AII-BRAVO1 48270U 21034C   26145.12513933  .00003036  00000+0  22842-3 0  99982 48270  97.5623 200.5644 0005503   1.5248 358.5993 15.03261345276152

JSON: /api/v1/satellites/48270 · /tle

For live sub-satellite position, see the globe view (requires WebGL).

§ Visibility from observer

Set your observer location to see the next 7 days of passes ≥ 10°. The values pass through the URL so the page stays shareable.

No JS? Fill the form by hand. The geolocation button needs JavaScript.

§ Radio — SatNOGS DB

ModeDescriptionDownlinkUplink
FM Downlink 401.050 MHz
FM second telemetry frequency 402.001 MHz

2 transmitters · refreshed weekly from db.satnogs.org